STARLINK-32528, 61724

Orbit data source: Space-Track

STARLINK-32528, 61724 is a payload satellite owned by SpaceX/Seattle (US) in LEO that was launched on Wed, 30 Oct 2024 UTC via an FALCON 9 launch vehicle from the Air Force Eastern Test Range (AFETR). Payload-class satellites include a variety of spacecraft equipped with specific instruments for various scientific and technological missions. These include communications satellites like Starlink; space stations such as the ISS; scientific satellites like the Hubble; Earth observation satellites from companies like Planet Labs, Umbra, and HawkEye 360; GPS; miniature CubeSats for education and research; and military/defense satellites.

Loading next visibility...
Identifier
61724, 2024-196T
Orbit
LEO
Last TLE update
14 hours ago
Origin
Manufacturer
SpaceX/Seattle
Mission
Operational Commercial Communications
Bus & Motor
STARLINK V2M, Unknown motor
Mass
730 kg wet, ~700 kg dry
Launch date (UTC)
2024-10-30 (8 months ago)
Launch vehicle
FALCON 9
Launch site
Air Force Eastern Test Range (AFETR)
Object type
Payload
Rocket body
Debris
Shape & HBR
Box + 2 Pan, 29 m
Radar Cross Section
36.964 m², Large (>1 m²)

Expand to show TLE details & history

TLE from 14 hours ago
0 STARLINK-32528
1 61724U 24196T   25181.52208489  .00000555  00000-0  30863-4 0  9996
2 61724  53.1591 192.9857 0001155  86.0570 274.0563 15.30194016 38249
Epoch: 2025-06-30T12:31Z
TLE epoch observation values (Epoch: 2025-06-30T12:31:48.134Z)
Latitude
-0°
Longitude
86.20445°
Altitude
476.077 km
Speed
7.629 km/s
True Right ascension
12h 51m 56s
True Declination
0° 00' 00"
Sunlit
Object was in daylight at epoch
Visualization orbit readout
Latitude
43.2226°
Longitude
127.86839°
Altitude
478.827 km
Speed
7.632 km/s
Apparent Right ascension
20h 48m 21s
Apparent Declination
22° 22' 38"
Sunlit
Object is in daylight
Visualization observer readout
Local Sidereal Time
14:30:46
Azimuth
69.894° E
Elevation
10.946°
Doppler factor
1
Orbital elements
Apogee altitude
476.281 km
Perigee altitude
474.698 km
Semi-major axis
6,853.627 km
Eccentricity
0.00012
Inclination
53.1591°
RAAN
192.9857°
Arg. of periapsis
86.057°
True anomaly
Unknown
Mean anomaly
274.0563°
Eccentric anomaly
Unknown
Mean motion
3.82527 °/min
Orbital period
94.11 mins
BSTAR
0.000030863
Loading maneuver chart data...
Loading SW <> Apogee altitude chart data...
Loading historical data...
Loading historical data...
Loading historical data...
Loading historical data...
Loading historical data...
Loading historical data...
Loading historical data...

STARLINK-32528 Visibility forecast

Observer location: undefined°, undefined°

Span
Click to sort rows by Start time (UTC) header in descending order
Start Az.
Max El. time (UTC)
Max El. Az.
Max El.
End time (UTC)
End Az.
5 mins2025-07-01 04:26:33.662Z279.156° WNW2025-07-01 04:28:33.662Z338.348° N28.69°2025-07-01 04:31:33.662Z34.475° NE
4 mins2025-07-01 09:23:33.662Z345.069° N2025-07-01 09:25:33.662Z41.681° NE26.648°2025-07-01 09:27:33.662Z85.362° E
4 mins2025-07-01 11:01:33.662Z274.551° WNW2025-07-01 11:03:33.662Z211.382° SW28.844°2025-07-01 11:05:33.662Z168.456° S
4 mins2025-07-02 02:19:33.662Z166.856° S2025-07-02 02:20:33.662Z143.127° SSE23.085°2025-07-02 02:23:33.662Z78.083° E
|